DW8054 Weather Reports


Display with metric or nautical units.
time (UTC)temp
F
wind
direction
speed
MPH
gust
MPH
rain 1hr
in
rain 24hr
in
rain mn
in
humidity
%
barometer
mb
20260504224552 67 360 3.0 8.0 0.00 0.00 0.00 38 1004.2
20260504223050 68 259 4.0 11.0 0.00 0.00 0.00 37 1004.2
20260504221548 69 258 3.0 10.0 0.00 0.00 0.00 37 1004.1
20260504220055 69 298 4.0 14.0 0.00 0.00 0.00 36 1004.1
20260504214546 70 244 5.0 12.0 0.00 0.00 0.00 36 1004.1
20260504213106 69 272 6.0 11.0 0.00 0.00 0.00 37 1004.2
20260504211545 69 240 5.0 14.0 0.00 0.00 0.00 37 1004.1
20260504210044 70 261 4.0 19.0 0.00 0.00 0.00 35 1004.1
20260504204545 70 338 4.0 16.0 0.00 0.00 0.00 37 1003.9
20260504203041 68 232 7.0 21.0 0.00 0.00 0.00 38 1004.1
20260504201540 68 234 5.0 16.0 0.00 0.00 0.00 40 1004.0
20260504200039 69 258 4.0 16.0 0.00 0.00 0.00 37 1004.0
20260504194538 69 326 5.0 15.0 0.00 0.00 0.00 38 1004.1
20260504193052 69 315 4.0 18.0 0.00 0.00 0.00 38 1004.3
20260504191536 68 255 6.0 15.0 0.00 0.00 0.00 38 1004.2
20260504190035 68 257 4.0 19.0 0.00 0.00 0.00 40 1004.4
20260504184533 66 227 6.0 16.0 0.00 0.00 0.00 38 1004.5
20260504183038 67 360 5.0 15.0 0.00 0.00 0.00 37 1004.5
20260504181534 69 332 5.0 19.0 0.00 0.00 0.00 40 1004.3
20260504180034 68 227 5.0 17.0 0.00 0.00 0.00 39 1004.2
20260504174529 68 296 8.0 16.0 0.00 0.00 0.00 37 1004.4
20260504173030 66 326 6.0 15.0 0.00 0.00 0.00 40 1004.6
20260504171528 67 222 6.0 16.0 0.00 0.00 0.00 36 1004.6
20260504100118 41 360 2.0 5.0 0.00 0.00 0.00 73 1008.0
20260504081600 40 360 1.0 5.0 0.00 0.00 0.00 71 1007.8
20260504044542 40 360 3.0 8.0 0.00 0.00 0.00 70 1007.6
20260504043046 40 360 4.0 9.0 0.00 0.00 0.00 69 1007.5
20260504041536 40 360 4.0 9.0 0.00 0.00 0.00 68 1007.4
20260504040034 41 360 3.0 7.0 0.00 0.00 0.00 67 1007.3
20260504034531 41 360 3.0 6.0 0.00 0.00 0.00 66 1007.2
20260504033031 41 360 3.0 6.0 0.00 0.00 0.00 67 1007.2
20260504031530 41 360 1.0 8.0 0.00 0.00 0.00 67 1007.1
20260504030030 42 360 1.0 4.0 0.00 0.01 0.00 66 1007.0
20260504024530 42 360 1.0 5.0 0.00 0.01 0.00 65 1007.0
20260504023029 41 360 1.0 5.0 0.00 0.01 0.00 69 1007.0
20260504021534 39 289 0.0 3.0 0.00 0.01 0.00 72 1007.0
20260504020034 39 290 1.0 3.0 0.00 0.02 0.00 72 1006.9
20260504014534 40 299 0.0 2.0 0.00 0.02 0.00 71 1007.0
20260504013023 41 360 0.0 2.0 0.00 0.02 0.00 68 1007.0
20260504011522 42 360 0.0 3.0 0.00 0.02 0.00 66 1006.9
20260504010021 43 360 0.0 3.0 0.00 0.05 0.00 63 1006.7
20260504004521 43 360 1.0 5.0 0.00 0.05 0.00 62 1006.4
20260504003020 44 360 1.0 6.0 0.00 0.05 0.00 61 1006.2
20260504001520 44 360 2.0 6.0 0.00 0.05 0.00 60 1006.1
20260504000019 45 360 3.0 6.0 0.00 0.08 0.00 59 1005.9
20260503234521 46 360 1.0 7.0 0.00 0.08 0.00 57 1005.8
20260503233018 47 360 3.0 10.0 0.00 0.08 0.00 55 1005.5
20260503231521 48 294 4.0 16.0 0.00 0.08 0.00 53 1005.2
20260503230021 48 324 2.0 13.0 0.00 0.09 0.00 54 1005.2